Find Arirang-5

NORAD ID: 39227 Int'l Des: 2013-042 Owner: KARI Country: KR operational
LEOCIRCULARRETROGRADESSO

Live-Position

3D-Globus wird geladen...

Über Arirang-5

Beschreibung wird geladen...

Nächste Überflüge

Passes for default location (London). Set your location on the main map for personalized predictions.

Höhenverlauf

Loading altitude history...

Zweizeiliger Elementsatz

1 39227U 13042A 26131.98541347 .00001355 00000-0 10097-3 0 9991
2 39227 97.6223 319.1940 0001839 258.8276 101.2743 15.04563439698416
Epoch: 11. Mai 2026 • Age: 19 hours

Aktueller Status

Höhe 561.6 km
Geschwindigkeit 7.58 km/s
Subsatellitenpunkt 48.30°N, 155.54°E
Startdatum 22. Aug. 2013
Alter 12.7 years
Typ earth observation

Technische Details

Klassifizierung Payload
Masse 1400.00 kg
Trockenmasse 1400.00 kg
Gesamtmasse 1400.00 kg
Länge 4.00 m
Durchmesser 2.40 m
Spannweite 7.00 m
Form Hex + panels
Hersteller KARI
Bus-Typ Kompsat
Phasenstatus In Orbit
Besitzer/Staat KARI/KR

Most Searched